DIRECTV 12 (36131 NORAD) Tracking and Keplerian Element Data

This shows tracking and keplerian element data for the satellite.

Feedback or suggestion? Click here.




ElementValue
Catalog36131
NameDIRECTV 12
Epoch Orbit3138
Epoch Day198.30907856
Epoch Year2018
RAAN208.6956
Inclination0.0145
Eccentricity3.58E-05
Argument of Perigee8.7534
Mean Anonmoly86.094
Mean Motion1.00267618
Decay Rate-1.22E-06
L11 36131U 09075A 18198.30907856 -.00000122 00000-0 00000+0 0 9995
L22 36131 0.0145 208.6956 0000358 8.7534 86.0940 1.00267618 31388

Live tracking and technical data element details for DIRECTV 12 (NORAD 36131). DIRECTV 12 can be tracked NOW for your location showing map with azimuth and elevation plus other details from your city location.

Track the satellite on the map from your city or location and see movement details for azimuth, elevation, latitude, longitude, range, height, and movement on the map or in text.







IsCatalogInMostPopularTable: catalog: 36131, numindb: 40
Update: records affected: 1



GetName: 36131 DIRECTV 12

Hit Count: updated at: Sat, 21 Jul 2018 07:42:44 GMT